This is the latest recevied weather packets stored in our database for station/object N0NPO. If no packets are shown the sender has not sent any weather packets the latest 10 day(s).
| Time | Temp. | Humidity | Pressure | Rain* | Wind** | Luminosity | Snow |
|---|---|---|---|---|---|---|---|
| 1777665960 | 12.78° C | 1% | 1023.8 hPa | 0 mm | - | 650 W/m² | - |
| 1777665657 | 12.78° C | 1% | 1024 hPa | 0 mm | - | 697 W/m² | - |
| 1777665355 | 12.78° C | 1% | 1023.8 hPa | 0 mm | - | 681 W/m² | - |
| 1777665050 | 13.33° C | 1% | 1023.8 hPa | 0 mm | - | 681 W/m² | - |
| 1777664745 | 13.33° C | 1% | 1023.8 hPa | 0 mm | - | 729 W/m² | - |
| 1777664442 | 12.78° C | 1% | 1023.9 hPa | 0 mm | - | 362 W/m² | - |
| 1777664139 | 13.33° C | 1% | 1023.8 hPa | 0 mm | - | 703 W/m² | - |
| 1777663838 | 13.89° C | 1% | 1023.9 hPa | 0 mm | - | 711 W/m² | - |
| 1777663534 | 12.78° C | 1% | 1023.8 hPa | 0 mm | - | 686 W/m² | - |
| 1777663232 | 13.33° C | 1% | 1024 hPa | 0 mm | - | 717 W/m² | - |
| 1777662929 | 13.33° C | 1% | 1023.8 hPa | 0 mm | - | 696 W/m² | - |
| 1777662626 | 12.22° C | 1% | 1023.7 hPa | 0 mm | - | 728 W/m² | - |
| 1777662321 | 12.22° C | 1% | 1023.9 hPa | 0 mm | - | 724 W/m² | - |
| 1777662017 | 12.22° C | 1% | 1024 hPa | 0 mm | - | 683 W/m² | - |
| 1777661713 | 12.78° C | 1% | 1023.9 hPa | 0 mm | - | 717 W/m² | - |
| 1777661409 | 12.78° C | 1% | 1024 hPa | 0 mm | - | 636 W/m² | - |
| 1777661106 | 12.22° C | 1% | 1024.2 hPa | 0 mm | - | 718 W/m² | - |
| 1777660800 | 12.22° C | 1% | 1023.9 hPa | 0 mm | - | 636 W/m² | - |
| 1777660498 | 11.67° C | 1% | 1024 hPa | 0 mm | - | 504 W/m² | - |
| 1777660194 | 12.22° C | 1% | 1024.3 hPa | 0 mm | - | 730 W/m² | - |
| 1777659891 | 12.22° C | 1% | 1024.2 hPa | 0 mm | - | 722 W/m² | - |
| 1777659588 | 11.67° C | 1% | 1024.2 hPa | 0 mm | - | 699 W/m² | - |
| 1777659285 | 11.67° C | 1% | 1024.4 hPa | 0 mm | - | 721 W/m² | - |
| 1777658982 | 11.67° C | 1% | 1024.3 hPa | 0 mm | - | 648 W/m² | - |
| 1777658679 | 11.67° C | 1% | 1024.4 hPa | 0 mm | - | 681 W/m² | - |
* Rain latest hour (hover to see other rain measurements)
** Current wind speed in m/s (hover to see current wind gust speed)